Home   Weather   Nizhny Novgorod   Past weeks

Flag for Russia Past Weather in Nizhny Novgorod, Russia — Yesterday and Last 2 Weeks

Now
48 °F

Partly sunny.


Feels Like: 46 °F
Forecast: 42 / 51 °F
Wind: 6 mph from North

Location: Nizhny Novgorod/Strigino

Current Time: Sep 28, 2016 at 1:23:38 PM

Latest Report: Sep 28, 2016 at 12:30 PM


Visibility: N/A

Pressure: 30.04 "Hg

Humidity: 76%

Dew Point: 41 °F

Location of Nizhny NovgorodLocation

Past Weather in Nizhny Novgorod — Graph

°F

Nizhny Novgorod Temperature Yesterday

Maximum temperature yesterday: 52 °F (at 1:00 PM)
Minimum temperature yesterday: 45 °F (at 7:30 AM)
Average temperature yesterday: 48 °F

High & Low Weather Summary for the Past Weeks

 TemperatureHumidityPressure
High59 °F (Sep 23, 2:00 PM)100% (Sep 14, 2:30 AM)30.12 "Hg (Sep 14, 2:30 AM)
Low39 °F (Sep 24, 6:30 AM)55% (Sep 23, 2:00 PM)29.56 "Hg (Sep 13, 12:00 PM)
Average49 °F87%29.86 "Hg
* Reported Sep 13 12:00 PM — Sep 28 12:00 PM, Nizhny Novgorod, Weather by CustomWeather, © 2016

Note: Actual official high and low records may vary slightly from our data, if they occured in-between our weather recording intervals... More about our weather records

Advertising

Nizhny Novgorod Weather History for the Previous 24 Hours

Scroll right to see more
 ConditionsComfort  
Time TempWeatherWind HumidityBarometerVisibility
12:00 PM
Wed, Sep 28
48 °FPartly sunny.6 mph76%30.04 "HgN/A
11:30 AM48 °FPartly sunny.6 mph76%30.04 "HgN/A
11:00 AM46 °FPartly sunny.8 mph82%30.04 "HgN/A
10:30 AM46 °FPartly sunny.8 mph82%30.04 "HgN/A
10:00 AM46 °FPartly sunny.8 mph82%30.04 "HgN/A
9:30 AM46 °FPartly sunny.8 mph82%30.04 "HgN/A
9:00 AM45 °FPartly sunny.6 mph87%30.07 "HgN/A
8:30 AM45 °FPartly sunny.8 mph87%30.07 "HgN/A
8:00 AM45 °FPartly sunny.6 mph87%30.07 "HgN/A
7:30 AM43 °FScattered clouds.3 mph93%30.07 "HgN/A
7:00 AM43 °FScattered clouds.6 mph87%30.07 "HgN/A
6:30 AM43 °FScattered clouds.6 mph87%30.07 "HgN/A
6:00 AM43 °FPassing clouds.3 mph87%30.07 "HgN/A
5:30 AM43 °FPassing clouds.3 mph87%30.07 "HgN/A
5:00 AM43 °FPassing clouds.6 mph87%30.07 "HgN/A
4:30 AM43 °FPassing clouds.3 mph87%30.07 "HgN/A
4:00 AM43 °FPassing clouds.6 mph87%30.07 "HgN/A
3:30 AM43 °FPassing clouds.6 mph87%30.09 "HgN/A
3:00 AM45 °FPassing clouds.8 mph81%30.09 "HgN/A
2:30 AM45 °FPassing clouds.6 mph81%30.07 "HgN/A
2:00 AM45 °FPassing clouds.6 mph81%30.09 "HgN/A
1:30 AM45 °FPassing clouds.6 mph81%30.09 "HgN/A
1:00 AM46 °FPassing clouds.6 mph76%30.09 "HgN/A
12:30 AM46 °FPassing clouds.6 mph76%30.09 "HgN/A
12:00 AM45 °FPassing clouds.6 mph81%30.09 "HgN/A
11:30 PM
Tue, Sep 27
45 °FPassing clouds.6 mph81%30.09 "HgN/A
11:00 PM45 °FPassing clouds.3 mph81%30.09 "HgN/A
10:30 PM45 °FPassing clouds.6 mph87%30.09 "HgN/A
10:00 PM46 °FPassing clouds.6 mph82%30.12 "HgN/A
9:30 PM46 °FLight rain. Passing clouds.6 mph82%30.12 "HgN/A
9:00 PM46 °FPassing clouds.3 mph82%30.12 "HgN/A
8:30 PM46 °FPassing clouds.3 mph82%30.12 "HgN/A
8:00 PM48 °FPassing clouds.3 mph76%30.12 "HgN/A
7:30 PM48 °FPassing clouds.6 mph71%30.12 "HgN/A
7:00 PM48 °FPassing clouds.8 mph71%30.12 "HgN/A
6:30 PM48 °FPassing clouds.8 mph71%30.12 "HgN/A
6:00 PM50 °FPassing clouds.13 mph67%30.12 "Hg6 mi
5:30 PM50 °FPartly sunny.8 mph71%30.12 "HgN/A
5:00 PM50 °FPartly sunny.8 mph71%30.09 "HgN/A
4:30 PM50 °FPartly sunny.8 mph71%30.09 "HgN/A
4:00 PM50 °FPartly sunny.8 mph71%30.09 "HgN/A
3:30 PM50 °FPartly sunny.8 mph71%30.09 "HgN/A
3:00 PM50 °FPartly sunny.10 mph71%30.09 "HgN/A
2:30 PM50 °FPartly sunny.15 mph71%30.09 "HgN/A
2:00 PM52 °FPartly sunny.15 mph67%30.09 "HgN/A
1:30 PM52 °FOvercast.10 mph72%30.09 "HgN/A
1:00 PM52 °FOvercast.10 mph72%30.07 "HgN/A
Weather by CustomWeather, © 2016

See weather overviewHow to use our weather pages